GW1714 Weather Reports


time (UTC)temp
C
wind
direction
speed
KPH
gust
KPH
rain 1hr
cm
rain 24hr
cm
rain mn
cm
humidity
%
barometer
mb
20260503002248 13 149 4.8 4.8 0.00 0.00 0.00 51 1033.2
20260503001745 13 157 1.6 4.8 0.00 0.00 0.00 50 1033.1
20260503001241 13 151 1.6 4.8 0.00 0.00 0.00 49 1033.1
20260503000739 13 168 0.0 4.8 0.00 0.00 0.00 48 1032.9
20260503000236 13 180 3.2 6.4 0.00 0.00 0.00 48 1032.9
20260502235733 14 180 3.2 4.8 0.00 0.00 0.00 49 1032.9
20260502235231 14 109 4.8 4.8 0.00 0.00 0.00 49 1032.8
20260502234727 14 148 4.8 4.8 0.00 0.00 0.00 48 1032.7
20260502234225 13 162 3.2 4.8 0.00 0.00 0.00 49 1032.5
20260502233720 13 186 0.0 4.8 0.00 0.00 0.00 47 1032.6
20260502233217 13 150 4.8 6.4 0.00 0.00 0.00 47 1032.6
20260502232713 14 171 0.0 6.4 0.00 0.00 0.00 47 1032.6
20260502232210 14 148 4.8 6.4 0.00 0.00 0.00 48 1032.6
20260502231707 14 169 3.2 6.4 0.00 0.00 0.00 47 1032.6
20260502231205 14 172 0.0 4.8 0.00 0.00 0.00 49 1032.5
20260502230703 14 185 0.0 3.2 0.00 0.00 0.00 48 1032.7
20260502230201 14 164 0.0 4.8 0.00 0.00 0.00 49 1032.5
20260502225656 15 180 1.6 3.2 0.00 0.00 0.00 49 1032.5
20260502225154 15 180 3.2 4.8 0.00 0.00 0.00 48 1032.8
20260502224650 15 194 1.6 4.8 0.00 0.00 0.00 48 1032.5
20260502224147 15 173 0.0 1.6 0.00 0.00 0.00 47 1032.7
20260502223645 15 194 0.0 3.2 0.00 0.00 0.00 46 1032.7
20260502223143 16 188 0.0 4.8 0.00 0.00 0.00 44 1032.7
20260502222640 16 180 0.0 3.2 0.00 0.00 0.00 42 1032.1
20260502222137 16 166 1.6 4.8 0.00 0.00 0.00 40 1032.4
20260502221632 17 177 3.2 6.4 0.00 0.00 0.00 40 1032.3
20260502221130 16 163 4.8 4.8 0.00 0.00 0.00 40 1032.5
20260502220626 15 195 1.6 4.8 0.00 0.00 0.00 43 1032.5
20260502220122 15 202 3.2 4.8 0.00 0.00 0.00 44 1032.4
20260502215619 15 199 3.2 8.0 0.00 0.00 0.00 45 1032.2
20260502215116 15 172 0.0 4.8 0.00 0.00 0.00 44 1032.1
20260502214613 15 180 1.6 4.8 0.00 0.00 0.00 43 1032.3
20260502214111 15 180 4.8 6.4 0.00 0.00 0.00 41 1032.1
20260502213608 16 174 1.6 4.8 0.00 0.00 0.00 41 1031.7
20260502213105 17 180 3.2 9.7 0.00 0.00 0.00 39 1031.7
20260502212604 17 180 1.6 4.8 0.00 0.00 0.00 39 1031.9
20260502212101 17 176 3.2 6.4 0.00 0.00 0.00 38 1031.4
20260502211556 17 192 1.6 8.0 0.00 0.00 0.00 38 1031.9
20260502211054 17 165 1.6 4.8 0.00 0.00 0.00 39 1031.8
20260502210551 17 194 4.8 6.4 0.00 0.00 0.00 37 1031.6
20260502210048 17 174 6.4 6.4 0.00 0.00 0.00 40 1031.5
20260502205544 17 162 1.6 8.0 0.00 0.00 0.00 38 1031.7
20260502205042 17 152 3.2 4.8 0.00 0.00 0.00 40 1031.7
20260502204538 17 160 1.6 6.4 0.00 0.00 0.00 38 1031.9
20260502204036 16 170 4.8 4.8 0.00 0.00 0.00 41 1031.6
20260502203533 16 180 0.0 6.4 0.00 0.00 0.00 38 1031.7
20260502203030 16 203 0.0 4.8 0.00 0.00 0.00 39 1031.7
20260502202526 16 172 4.8 6.4 0.00 0.00 0.00 37 1031.9
20260502202025 16 195 0.0 6.4 0.00 0.00 0.00 40 1031.9
20260502201520 16 169 3.2 4.8 0.00 0.00 0.00 37 1031.9
20260502201016 18 180 3.2 9.7 0.00 0.00 0.00 35 1031.8
20260502200513 19 122 4.8 4.8 0.00 0.00 0.00 37 1031.9
20260502200011 19 133 4.8 4.8 0.00 0.00 0.00 37 1031.8
20260502195508 17 180 0.0 6.4 0.00 0.00 0.00 37 1031.8
20260502195003 17 165 8.0 9.7 0.00 0.00 0.00 37 1031.9
20260502194501 17 157 9.7 9.7 0.00 0.00 0.00 36 1032.1
20260502193956 16 179 8.0 11.3 0.00 0.00 0.00 36 1032.1
20260502193454 17 180 4.8 14.5 0.00 0.00 0.00 34 1032.3
20260502192949 17 158 8.0 8.0 0.00 0.00 0.00 37 1031.8
20260502192446 17 198 1.6 6.4 0.00 0.00 0.00 34 1031.9
20260502191943 17 174 4.8 8.0 0.00 0.00 0.00 35 1032.2
20260502191441 17 162 8.0 9.7 0.00 0.00 0.00 37 1032.1
20260502190938 16 177 4.8 4.8 0.00 0.00 0.00 38 1031.9
20260502190436 16 192 3.2 8.0 0.00 0.00 0.00 39 1032.2
20260502185932 16 154 3.2 3.2 0.00 0.00 0.00 37 1032.2
20260502185427 15 173 3.2 4.8 0.00 0.00 0.00 46 1032.2
20260502184925 16 185 0.0 3.2 0.00 0.00 0.00 43 1032.2
20260502184420 15 192 3.2 6.4 0.00 0.00 0.00 42 1032.4
20260502183917 16 195 1.6 6.4 0.00 0.00 0.00 42 1032.5
20260502183413 17 172 3.2 11.3 0.00 0.00 0.00 37 1032.4
20260502182909 17 188 0.0 6.4 0.00 0.00 0.00 39 1032.4
20260502182404 17 180 0.0 4.8 0.00 0.00 0.00 39 1032.6
20260502181901 15 174 1.6 6.4 0.00 0.00 0.00 40 1032.5
20260502181359 15 163 6.4 9.7 0.00 0.00 0.00 42 1032.6
20260502180857 16 159 3.2 6.4 0.00 0.00 0.00 42 1032.8
20260502180354 15 184 3.2 6.4 0.00 0.00 0.00 43 1032.5
20260502170312 15 144 3.2 4.8 0.00 0.00 0.00 41 1033.2
20260502164300 15 163 3.2 3.2 0.00 0.00 0.00 41 1033.5
20260502163756 15 174 4.8 6.4 0.00 0.00 0.00 40 1033.2
20260502163252 15 203 0.0 11.3 0.00 0.00 0.00 41 1033.2
20260502162749 15 78 0.0 6.4 0.00 0.00 0.00 43 1033.4
20260502162246 14 147 3.2 8.0 0.00 0.00 0.00 42 1033.4
20260502161743 15 168 3.2 6.4 0.00 0.00 0.00 42 1033.3
20260502161239 15 170 3.2 6.4 0.00 0.00 0.00 42 1033.3
20260502160737 14 150 4.8 4.8 0.00 0.00 0.00 42 1033.5
20260502160236 14 158 8.0 8.0 0.00 0.00 0.00 42 1033.3
20260502152154 13 185 1.6 3.2 0.00 0.00 0.00 55 1033.6
20260502151652 13 172 0.0 3.2 0.00 0.00 0.00 54 1033.3
20260502151149 13 33 3.2 4.8 0.00 0.00 0.00 56 1033.2
20260502150647 13 173 0.0 4.8 0.00 0.00 0.00 56 1033.2
20260502150143 13 11 1.6 4.8 0.00 0.00 0.00 56 1033.1
20260502140106 11 144 3.2 4.8 0.00 0.00 0.00 66 1033.5
20260502130532 10 140 0.0 4.8 0.00 0.00 0.00 71 1033.1
20260502123515 10 152 3.2 6.4 0.00 0.00 0.00 75 1032.9
20260502123011 10 148 1.6 4.8 0.00 0.00 0.00 74 1033.1
20260502122508 10 140 1.6 4.8 0.00 0.00 0.00 74 1033.0
20260502122005 10 18 0.0 4.8 0.00 0.00 0.00 77 1033.0
20260502121503 10 120 0.0 3.2 0.00 0.00 0.00 75 1033.0
20260502121000 10 154 3.2 3.2 0.00 0.00 0.00 75 1033.0
20260502120456 10 135 3.2 4.8 0.00 0.00 0.00 76 1033.2
20260502115450 10 127 0.0 3.2 0.00 0.00 0.00 73 1033.2
20260502114946 10 147 3.2 4.8 0.00 0.00 0.00 72 1032.4
20260502114443 10 131 0.0 3.2 0.00 0.00 0.00 74 1032.7
20260502113941 10 154 4.8 4.8 0.00 0.00 0.00 73 1032.5
20260502113438 10 146 4.8 4.8 0.00 0.00 0.00 73 1032.3
20260502112937 10 147 3.2 4.8 0.00 0.00 0.00 73 1032.5
20260502112434 10 150 3.2 4.8 0.00 0.00 0.00 74 1032.3
20260502111931 10 151 3.2 4.8 0.00 0.00 0.00 76 1032.3
20260502111428 10 157 0.0 3.2 0.00 0.00 0.00 74 1032.2
20260502110926 10 29 0.0 4.8 0.00 0.00 0.00 73 1031.9
20260502110423 10 71 0.0 4.8 0.00 0.00 0.00 72 1031.7
20260502105920 10 96 1.6 1.6 0.00 0.00 0.00 74 1031.9
20260502105417 10 82 0.0 1.6 0.00 0.00 0.00 73 1032.3
20260502104916 10 35 1.6 1.6 0.00 0.00 0.00 74 1032.1
20260502104412 10 99 0.0 3.2 0.00 0.00 0.00 73 1032.2
20260502103909 10 66 1.6 3.2 0.00 0.00 0.00 73 1032.2
20260502103407 10 97 0.0 3.2 0.00 0.00 0.00 73 1032.5
20260502102904 10 135 3.2 3.2 0.00 0.00 0.00 73 1032.6
20260502102400 10 102 1.6 3.2 0.00 0.00 0.00 72 1032.3
20260502101858 10 82 0.0 1.6 0.00 0.00 0.00 72 1032.4
20260502101356 10 131 0.0 3.2 0.00 0.00 0.00 71 1032.5
20260502100854 10 35 1.6 3.2 0.00 0.00 0.00 72 1032.4
20260502100353 10 105 1.6 3.2 0.00 0.00 0.00 72 1032.3
20260502091327 10 150 3.2 3.2 0.00 0.00 0.00 70 1031.9
20260502090825 10 90 1.6 3.2 0.00 0.00 0.00 70 1031.8
20260502090321 10 97 0.0 3.2 0.00 0.00 0.00 71 1032.3
20260502071216 11 154 3.2 4.8 0.00 0.00 0.00 65 1032.4
20260502070714 11 175 1.6 6.4 0.00 0.00 0.00 65 1032.3
20260502070212 11 148 3.2 4.8 0.00 0.00 0.00 65 1032.6
20260502065710 11 166 0.0 4.8 0.00 0.00 0.00 65 1032.5
20260502065208 12 151 3.2 3.2 0.00 0.00 0.00 64 1032.3
20260502064706 12 154 0.0 4.8 0.00 0.00 0.00 64 1032.8
20260502064203 12 145 0.0 4.8 0.00 0.00 0.00 64 1032.6
20260502063701 12 151 4.8 4.8 0.00 0.00 0.00 64 1032.6
20260502063158 12 145 0.0 3.2 0.00 0.00 0.00 65 1032.6
20260502062655 12 157 0.0 3.2 0.00 0.00 0.00 64 1032.5
20260502062153 12 114 0.0 1.6 0.00 0.00 0.00 62 1032.7
20260502061651 12 135 0.0 3.2 0.00 0.00 0.00 63 1032.7
20260502061148 12 145 0.0 3.2 0.00 0.00 0.00 62 1032.5
20260502060643 12 173 0.0 0.0 0.00 0.00 0.00 61 1032.6
20260502060140 12 144 4.8 4.8 0.00 0.00 0.00 62 1032.6
20260502055637 12 150 3.2 4.8 0.00 0.00 0.00 61 1032.3
20260502055135 12 165 1.6 4.8 0.00 0.00 0.00 61 1032.5
20260502054634 12 127 3.2 3.2 0.00 0.00 0.00 61 1032.4
20260502054131 12 168 0.0 4.8 0.00 0.00 0.00 60 1032.6
20260502053628 12 158 3.2 4.8 0.00 0.00 0.00 60 1032.4
20260502053125 12 154 4.8 4.8 0.00 0.00 0.00 61 1032.6
20260502052623 13 172 3.2 3.2 0.00 0.00 0.00 61 1032.5
20260502052121 13 166 3.2 4.8 0.00 0.00 0.00 60 1032.5
20260502051619 13 162 0.0 4.8 0.00 0.00 0.00 60 1032.7
20260502051117 13 147 3.2 4.8 0.00 0.00 0.00 60 1032.5
20260502050613 13 180 1.6 4.8 0.00 0.00 0.00 59 1032.5
20260502050110 13 165 0.0 4.8 0.00 0.00 0.00 59 1032.6
20260502045606 13 166 0.0 4.8 0.00 0.00 0.00 58 1032.6
20260502045104 13 180 0.0 4.8 0.00 0.00 0.00 58 1032.7
20260502044600 13 180 0.0 3.2 0.00 0.00 0.00 58 1032.6
20260502044057 13 154 3.2 3.2 0.00 0.00 0.00 58 1032.8
20260502043554 13 165 0.0 3.2 0.00 0.00 0.00 58 1032.7
20260502043050 13 109 1.6 1.6 0.00 0.00 0.00 58 1032.4
20260502042545 13 175 1.6 3.2 0.00 0.00 0.00 59 1032.3
20260502042043 13 172 0.0 3.2 0.00 0.00 0.00 58 1032.6
20260502041541 13 154 1.6 4.8 0.00 0.00 0.00 57 1032.8
20260502041038 13 180 0.0 6.4 0.00 0.00 0.00 57 1032.6
20260502040534 13 165 0.0 6.4 0.00 0.00 0.00 57 1032.5
20260502040031 13 180 3.2 4.8 0.00 0.00 0.00 58 1032.6
20260502035527 13 180 3.2 4.8 0.00 0.00 0.00 59 1032.5
20260502035025 13 172 3.2 6.4 0.00 0.00 0.00 58 1032.7
20260502034523 14 151 4.8 4.8 0.00 0.00 0.00 59 1032.7
20260502034021 14 186 1.6 4.8 0.00 0.00 0.00 58 1032.4
20260502033519 14 180 3.2 4.8 0.00 0.00 0.00 59 1032.6
20260502033016 14 144 6.4 6.4 0.00 0.00 0.00 59 1032.5
20260502032511 14 194 0.0 8.0 0.00 0.00 0.00 60 1032.6
20260502032009 14 185 1.6 4.8 0.00 0.00 0.00 61 1032.7
20260502031507 14 163 3.2 6.4 0.00 0.00 0.00 63 1032.5
20260502031004 14 168 1.6 8.0 0.00 0.00 0.00 64 1032.7
20260502030503 14 146 4.8 8.0 0.00 0.00 0.00 64 1032.6
20260502030000 14 180 0.0 6.4 0.00 0.00 0.00 64 1032.6
20260502025457 15 198 4.8 4.8 0.00 0.00 0.00 65 1032.5
20260502024955 15 152 4.8 4.8 0.00 0.00 0.00 65 1032.5
20260502024452 15 150 4.8 4.8 0.00 0.00 0.00 65 1032.4
20260502023951 15 154 0.0 3.2 0.00 0.00 0.00 65 1032.6
20260502023448 15 186 0.0 4.8 0.00 0.00 0.00 64 1032.3
20260502022945 15 192 0.0 4.8 0.00 0.00 0.00 63 1032.2
20260502022441 15 166 0.0 4.8 0.00 0.00 0.00 62 1032.4
20260502021938 15 172 0.0 3.2 0.00 0.00 0.00 62 1032.2
20260502021436 15 180 1.6 4.8 0.00 0.00 0.00 60 1032.3
20260502020933 15 172 0.0 4.8 0.00 0.00 0.00 58 1032.3
20260502020431 16 180 3.2 4.8 0.00 0.00 0.00 57 1032.1
20260502015927 16 163 3.2 4.8 0.00 0.00 0.00 56 1032.1
20260502015425 16 117 3.2 4.8 0.00 0.00 0.00 55 1031.9
20260502014921 16 151 1.6 3.2 0.00 0.00 0.00 54 1031.7
20260502014419 16 165 0.0 1.6 0.00 0.00 0.00 54 1031.6
20260502013915 16 140 0.0 3.2 0.00 0.00 0.00 53 1031.6
20260502013410 16 165 0.0 3.2 0.00 0.00 0.00 53 1031.6
20260502012907 16 165 0.0 1.6 0.00 0.00 0.00 53 1031.4
20260502012405 16 99 0.0 3.2 0.00 0.00 0.00 54 1031.2
20260502011902 16 18 1.6 4.8 0.00 0.00 0.00 55 1031.2
20260502011358 16 6 1.6 4.8 0.00 0.00 0.00 55 1031.1
20260502010855 16 50 4.8 6.4 0.00 0.00 0.00 54 1031.0
20260502010352 16 35 1.6 3.2 0.00 0.00 0.00 54 1031.1
20260502005849 16 35 1.6 4.8 0.00 0.00 0.00 54 1030.9
20260502005347 16 16 0.0 6.4 0.00 0.00 0.00 55 1030.9
20260502004844 16 6 1.6 3.2 0.00 0.00 0.00 55 1030.6
20260502004340 16 40 4.8 6.4 0.00 0.00 0.00 53 1030.6
20260502003838 16 15 3.2 4.8 0.00 0.00 0.00 52 1030.4
20260502003334 17 27 4.8 6.4 0.00 0.00 0.00 51 1030.1
20260502002831 17 57 3.2 9.7 0.00 0.00 0.00 51 1030.5